Regional Weather Roundup
Issued by NWS

Home | Current Version | Previous Version | Graphics & Text | Print | Product List | Glossary On
Versions: 1 2 3 4 5 6 7 8 9 10 11 12 13 14 15 16 17 18 19 20 21 22 23 24 25 26 27 28 29
000
ASUS45 KCYS 290110
RWRWY

WYOMING REGIONAL WEATHER ROUNDUP
NATIONAL WEATHER SERVICE CHEYENNE WY
700 PM MDT THU APR 28 2016

NOTE:  "FAIR" INDICATES FEW OR NO CLOUDS BELOW 12,000 FEET
WITH NO SIGNIFICANT WEATHER AND/OR OBSTRUCTIONS TO VISIBILITY.

WYZ001-290200-
YELLOWSTONE NATIONAL PARK

CITY           SKY/WX    TMP DP  RH WIND       PRES   REMARKS
LK YELLOWSTONE   N/A     34  25  69 CALM      29.92R
W YELLOWSTONE  NOT AVBL

$$
WYZ002>013-054>058-071-098>099-290200-
NORTHERN WYOMING

CITY           SKY/WX    TMP DP  RH WIND       PRES   REMARKS
JACKSON        MOSUNNY   48  25  40 N5        29.83S
CODY           CLOUDY    37  28  70 N10       30.02S WCI  30
GREYBULL       CLOUDY    46  29  51 CALM      30.01R
WORLAND        CLOUDY    43  31  62 SW5       30.01S
SHERIDAN       CLOUDY    39  33  79 CALM      30.08R
BUFFALO          N/A     35  31  85 MISG      30.07S
GILLETTE       CLOUDY    36  32  85 NE8       30.07R WCI  30
HULETT         CLOUDY    36  32  87 NE6       30.09R WCI  31
NEWCASTLE      CLOUDY    39  30  70 CALM      30.06S

$$
WYZ014>020-022>026-101>103-290200-
CENTRAL WYOMING

CITY           SKY/WX    TMP DP  RH WIND       PRES   REMARKS
BIG PINEY      CLOUDY    37  26  64 S16       29.93R WCI  28
PINEDALE       CLOUDY    37  27  65 S14       29.92R WCI  29
DUBOIS         FLURRIES  32  27  80 SE14G20   29.95S WCI  22
LANDER         CLOUDY    37  29  72 E7        29.99R WCI  32
RIVERTON       CLOUDY    37  28  70 E13       30.02R WCI  29
CASPER         CLOUDY    35  25  66 E8        30.03R WCI  29
DOUGLAS        CLOUDY    38  27  64 NE5       30.05R WCI  34

$$
WYZ021-027>030-104>119-290200-
SOUTHERN WYOMING

CITY           SKY/WX    TMP DP  RH WIND       PRES   REMARKS
EVANSTON       CLOUDY    34  27  75 E16       29.89R WCI  24
KEMMERER         N/A     32  28  86 E20       29.92S WCI  20
FORT BRIDGER   LGT SNOW  32  32 100 E12       29.93S WCI  23
ROCK SPRINGS   CLOUDY    33  27  78 NE24G32   29.92R WCI  20
DIXON          MOCLDY    43  36  76 E5        29.90R
RAWLINS        CLOUDY    32  28  85 NE15G26   29.94F WCI  22
SARATOGA       CLOUDY    36  30  80 SE3       29.94R
LARAMIE        CLOUDY    30  26  85 SE15      29.96R WCI  19
CHEYENNE       FLURRIES  34  32  92 S9        30.00R WCI  27
TORRINGTON     LGT RAIN  37  34  89 E8        30.05S WCI  31
PINE BLUFFS    RAIN      34  32  93 E8        30.03R WCI  27

$$




USA.gov is the U.S. government's official web portal to all federal, state and local government web resources and services.